This is the latest recevied weather packets stored in our database for station/object N5COP-13. If no packets are shown the sender has not sent any weather packets the latest 10 day(s).
| Time | Temp. | Humidity | Pressure | Rain* | Wind** | Luminosity | Snow |
|---|---|---|---|---|---|---|---|
| 1777746364 | 20° C | 25% | 1022.8 hPa | 0 mm | - | 918 W/m² | - |
| 1777746060 | 20° C | 24% | 1022.7 hPa | 0 mm | - | 950 W/m² | - |
| 1777745758 | 19.44° C | 24% | 1022.9 hPa | 0 mm | - | 914 W/m² | - |
| 1777745456 | 20° C | 26% | 1022.7 hPa | 0 mm | - | 172 W/m² | - |
| 1777745153 | 19.44° C | 28% | 1022.9 hPa | 0 mm | - | 853 W/m² | - |
| 1777744849 | 19.44° C | 29% | 1022.9 hPa | 0 mm | - | 875 W/m² | - |
| 1777744543 | 20° C | 29% | 1022.8 hPa | 0 mm | - | 875 W/m² | - |
| 1777744234 | 20° C | 27% | 1023.2 hPa | 0 mm | - | 869 W/m² | - |
| 1777743932 | 20° C | 27% | 1023.1 hPa | 0 mm | - | 859 W/m² | - |
| 1777743628 | 20° C | 28% | 1023.4 hPa | 0 mm | - | 852 W/m² | - |
| 1777743325 | 20° C | 30% | 1023.1 hPa | 0 mm | - | 853 W/m² | - |
| 1777743023 | 18.89° C | 32% | 1023.2 hPa | 0 mm | - | 841 W/m² | - |
| 1777742720 | 18.89° C | 33% | 1023.2 hPa | 0 mm | - | 839 W/m² | - |
| 1777742416 | 18.89° C | 34% | 1023.4 hPa | 0 mm | - | 832 W/m² | - |
| 1777742112 | 18.89° C | 34% | 1023.6 hPa | 0 mm | - | 819 W/m² | - |
| 1777741810 | 18.89° C | 34% | 1023.5 hPa | 0 mm | - | 812 W/m² | - |
| 1777741506 | 18.33° C | 36% | 1023.6 hPa | 0 mm | - | 804 W/m² | - |
| 1777741203 | 17.78° C | 38% | 1023.5 hPa | 0 mm | - | 797 W/m² | - |
| 1777740899 | 17.78° C | 38% | 1023.6 hPa | 0 mm | - | 789 W/m² | - |
| 1777740596 | 17.78° C | 38% | 1023.7 hPa | 0 mm | - | 781 W/m² | - |
| 1777740292 | 17.78° C | 38% | 1023.4 hPa | 0 mm | - | 770 W/m² | - |
| 1777739990 | 17.78° C | 40% | 1023.5 hPa | 0 mm | - | 763 W/m² | - |
| 1777739685 | 17.22° C | 40% | 1023.7 hPa | 0 mm | - | 752 W/m² | - |
| 1777739383 | 17.22° C | 38% | 1023.6 hPa | 0 mm | - | 742 W/m² | - |
| 1777739080 | 16.67° C | 40% | 1023.6 hPa | 0 mm | - | 731 W/m² | - |
* Rain latest hour (hover to see other rain measurements)
** Current wind speed in m/s (hover to see current wind gust speed)